Date String (YYYY-MM-DD hh:mm:ss) UTC,Instrument flags,Ambient pressure (hPa),Sample flow (lpm),Bypass flow (lpm),Sample temperature (°C),Ambient temperature (°C),ASC tube jacket temperature (°C),LED temperature (°C),Box temperature (°C),Sample RH (%),Span deviation,Mass concentration (μg/m³),Mass concentration (μg/m³),Mass concentration (μg/m³)
DateTimeUTC,F1_M11,P_M11,Q1_M11,Q2_M11,T1_M11,T2_M11,T3_M11,T4_M11,T5_M11,U1_M11,ZSPAN_M11,X0_M11,X2_M11,X1_M11
2023-03-08 04:00:00,,0827.5,5.00,0.00,22.0,20.2,00.0,30.7,23.6,13.6,-002.5,0009.20,0006.71,0006.38
2023-03-08 04:01:00,,0827.5,5.00,0.00,21.9,20.1,00.0,30.7,23.6,13.6,-002.3,0009.25,0006.73,0006.37
2023-03-08 04:02:00,,0827.6,5.00,0.00,21.9,20.0,00.0,30.7,23.5,13.6,-002.0,0009.16,0006.72,0006.36
2023-03-08 04:03:00,,0827.6,5.01,0.00,21.9,19.9,00.0,30.7,23.5,13.7,-002.1,0009.16,0006.72,0006.35
2023-03-08 04:04:00,,0827.7,5.02,0.00,21.9,20.1,00.0,30.7,23.5,13.7,-002.3,0009.11,0006.69,0006.33
2023-03-08 04:05:00,,0827.7,4.99,0.00,21.9,21.2,00.0,30.6,23.7,13.7,-001.9,0009.00,0006.69,0006.33
2023-03-08 04:06:00,,0827.7,5.00,0.00,22.0,22.4,00.0,30.7,24.0,13.7,-001.8,0008.95,0006.67,0006.31
2023-03-08 04:07:00,,0827.7,5.01,0.00,22.1,22.6,00.0,30.7,24.1,13.7,-001.6,0008.99,0006.70,0006.33
2023-03-08 04:08:00,,0827.7,4.99,0.00,22.2,22.0,00.0,30.7,24.0,13.7,-001.6,0008.97,0006.71,0006.34
2023-03-08 04:09:00,,0827.7,4.99,0.00,22.2,21.6,00.0,30.8,23.9,13.7,-001.9,0009.01,0006.72,0006.34
2023-03-08 04:10:00,,0827.7,5.00,0.00,22.1,21.2,00.0,30.8,23.9,13.6,-001.8,0008.98,0006.68,0006.32
2023-03-08 04:11:00,,0827.7,5.00,0.00,22.1,20.9,00.0,30.8,23.8,13.7,-001.4,0009.02,0006.68,0006.32
2023-03-08 04:12:00,,0827.7,5.01,0.00,22.1,20.7,00.0,30.8,23.8,13.8,-001.4,0008.90,0006.65,0006.32
2023-03-08 04:13:00,,0827.7,5.01,0.00,22.1,20.5,00.0,30.8,23.7,13.9,-001.4,0008.89,0006.64,0006.33
2023-03-08 04:14:00,,0827.7,5.01,0.00,22.0,20.4,00.0,30.8,23.7,13.9,-001.6,0008.84,0006.61,0006.32
2023-03-08 04:15:00,,0827.7,5.00,0.00,22.0,20.3,00.0,30.7,23.6,13.9,-001.7,0008.80,0006.59,0006.31
2023-03-08 04:16:00,,0827.7,5.00,0.00,22.0,20.2,00.0,30.7,23.6,14.0,-001.4,0008.79,0006.57,0006.29
2023-03-08 04:17:00,,0827.7,4.99,0.00,22.0,20.1,00.0,30.7,23.6,14.1,-001.5,0008.79,0006.58,0006.29
2023-03-08 04:18:00,,0827.7,4.98,0.00,21.9,20.0,00.0,30.7,23.5,14.1,-001.8,0009.00,0006.56,0006.28
2023-03-08 04:19:00,,0827.7,4.99,0.00,21.9,19.9,00.0,30.7,23.5,14.0,-001.9,0009.17,0006.56,0006.26
2023-03-08 04:20:00,,0827.7,4.99,0.00,21.9,20.7,00.0,30.7,23.6,14.0,-001.7,0009.32,0006.57,0006.24
2023-03-08 04:21:00,,0827.7,4.97,0.00,22.0,22.1,00.0,30.7,23.9,14.0,-001.8,0009.46,0006.58,0006.24
2023-03-08 04:22:00,,0827.7,4.98,0.00,22.1,22.9,00.0,30.7,24.1,13.9,-001.8,0009.47,0006.55,0006.22
2023-03-08 04:23:00,,0827.7,5.01,0.00,22.2,22.5,00.0,30.8,24.1,13.9,-001.9,0009.48,0006.52,0006.19
2023-03-08 04:24:00,,0827.7,4.99,0.00,22.2,22.0,00.0,30.8,24.1,13.9,-002.0,0009.77,0006.53,0006.16
2023-03-08 04:25:00,,0827.8,5.00,0.00,22.2,21.6,00.0,30.8,24.0,13.9,-002.1,0010.24,0006.53,0006.14
2023-03-08 04:26:00,,0827.7,5.00,0.00,22.2,21.2,00.0,30.8,23.9,13.8,-002.3,0010.24,0006.51,0006.13
2023-03-08 04:27:00,,0827.7,5.00,0.00,22.2,20.9,00.0,30.8,23.9,13.8,-002.8,0010.24,0006.49,0006.12
2023-03-08 04:28:00,,0827.7,5.00,0.00,22.2,20.7,00.0,30.8,23.9,13.7,-002.9,0010.28,0006.47,0006.10
2023-03-08 04:29:00,,0827.7,5.00,0.00,22.1,20.5,00.0,30.8,23.8,13.7,-002.9,0010.07,0006.44,0006.08
2023-03-08 04:30:00,,0827.7,5.00,0.00,22.1,20.4,00.0,30.8,23.8,13.7,-002.9,0009.98,0006.45,0006.06
2023-03-08 04:31:00,,0827.7,5.01,0.00,22.1,20.3,00.0,30.8,23.7,13.7,-002.5,0009.83,0006.43,0006.06
2023-03-08 04:32:00,,0827.7,4.99,0.00,22.0,20.2,00.0,30.8,23.7,13.8,-002.3,0009.70,0006.43,0006.07
2023-03-08 04:33:00,,0827.7,5.00,0.00,22.0,20.1,00.0,30.8,23.7,14.0,-001.8,0009.71,0006.45,0006.07
2023-03-08 04:34:00,,0827.6,5.01,0.00,22.0,20.1,00.0,30.8,23.7,14.2,-001.8,0010.06,0006.47,0006.08
2023-03-08 04:35:00,,0827.6,5.00,0.00,22.0,20.1,00.0,30.8,23.7,14.2,-002.0,0009.95,0006.44,0006.10
2023-03-08 04:36:00,,0827.7,5.00,0.00,22.0,20.1,00.0,30.7,23.6,14.1,-001.3,0009.41,0006.44,0006.10
2023-03-08 04:37:00,,0827.7,5.01,0.00,21.9,20.3,00.0,30.7,23.6,14.0,-000.8,0009.38,0006.45,0006.10
2023-03-08 04:38:00,,0827.7,4.98,0.00,22.0,21.4,00.0,30.7,23.8,13.9,-000.9,0009.49,0006.46,0006.10
2023-03-08 04:39:00,,0827.7,4.99,0.00,22.1,22.6,00.0,30.7,24.1,13.7,-000.3,0009.77,0006.43,0006.09
2023-03-08 04:40:00,,0827.7,5.00,0.00,22.2,22.9,00.0,30.8,24.2,13.5,-000.1,0009.74,0006.42,0006.08
2023-03-08 04:41:00,,0827.6,5.01,0.00,22.3,22.4,00.0,30.8,24.1,13.5,0000.2,0009.67,0006.40,0006.08
2023-03-08 04:42:00,,0827.6,4.99,0.00,22.3,21.8,00.0,30.8,24.1,13.4,0000.7,0009.67,0006.40,0006.07
2023-03-08 04:43:00,,0827.6,5.03,0.00,22.2,21.4,00.0,30.9,24.0,13.3,0000.8,0010.12,0006.36,0006.05
2023-03-08 04:44:00,,0827.6,4.98,0.00,22.2,21.1,00.0,30.9,23.9,13.4,0000.3,0010.06,0006.33,0006.03
2023-03-08 04:45:00,,0827.5,5.01,0.00,22.2,20.9,00.0,30.9,23.9,13.3,0000.4,0009.77,0006.31,0006.02
2023-03-08 04:46:00,,0827.6,5.00,0.00,22.2,20.7,00.0,30.9,23.9,13.3,0000.3,0009.71,0006.29,0005.99
2023-03-08 04:47:00,,0827.6,4.98,0.00,22.2,20.6,00.0,30.9,23.8,13.4,-000.6,0009.69,0006.28,0005.99
2023-03-08 04:48:00,,0827.6,4.99,0.00,22.1,20.4,00.0,30.9,23.8,13.5,-000.8,0009.69,0006.28,0005.98
2023-03-08 04:49:00,,0827.5,4.99,0.00,22.1,20.3,00.0,30.9,23.8,13.4,-000.5,0009.64,0006.27,0005.97
2023-03-08 04:50:00,,0827.5,5.00,0.00,22.1,20.2,00.0,30.8,23.8,13.2,-000.7,0009.23,0006.26,0005.95
2023-03-08 04:51:00,,0827.5,5.00,0.00,22.1,20.2,00.0,30.8,23.8,13.2,-000.5,0009.28,0006.27,0005.94
2023-03-08 04:52:00,,0827.5,5.00,0.00,22.1,20.1,00.0,30.8,23.7,13.2,-000.8,0009.30,0006.26,0005.92
2023-03-08 04:53:00,,0827.5,5.01,0.00,22.0,20.1,00.0,30.8,23.7,13.2,-001.2,0009.28,0006.25,0005.91
2023-03-08 04:54:00,,0827.5,4.98,0.00,22.0,20.0,00.0,30.8,23.7,13.1,-001.5,0008.85,0006.26,0005.90
2023-03-08 04:55:00,,0827.5,5.03,0.00,22.0,20.6,00.0,30.8,23.8,13.1,-001.7,0008.74,0006.26,0005.90
2023-03-08 04:56:00,,0827.6,5.02,0.00,22.1,21.9,00.0,30.8,24.0,13.1,-001.9,0008.66,0006.24,0005.88
2023-03-08 04:57:00,,0827.6,5.02,0.00,22.2,22.8,00.0,30.8,24.2,13.1,-001.6,0008.59,0006.24,0005.87
2023-03-08 04:58:00,,0827.6,5.01,0.00,22.3,22.6,00.0,30.8,24.2,13.2,-001.1,0008.56,0006.24,0005.85
2023-03-08 04:59:00,,0827.5,5.02,0.00,22.3,22.1,00.0,30.9,24.2,13.2,-001.1,0008.65,0006.24,0005.84
